Location: Novokuznetsk
(53.7500°N, 87.1000°E)
Time: 00:05:21
(UTC+06:00)

ISS - Pass Details

Date: 26 May 2021
Orbit: 417 x 422 km, 51.6° (Epoch: 16 June)

Event Time Altitude Azimuth Distance (km) Brightness Sun altitude
Rises 22:22:54 0° 278° (W) 2,369 0.6 -11.6°
Reaches altitude 10° 22:25:20 10° 262° (W) 1,503 -0.7 -11.8°
Maximum altitude 22:27:55 21° 211° (SSW) 1,016 -2.1 -11.9°
Enters shadow 22:29:02 18° 184° (S) 1,122 -2.1 -12.0°
